Location: Allos
(44.2333°N, 6.6333°E)
Time: 05:35:31
(UTC+00:00)

YAOGAN 6 - Pass Details

Date: 01 December 2020
Orbit: 466 x 502 km, 97.0° (Epoch: 27 January)

Event Time Altitude Azimuth Distance (km) Brightness Sun altitude
Rises 16:44:21 0° 170° (S) 2,565 6.4 -8.6°
Reaches altitude 10° 16:46:26 10° 172° (S) 1,682 5.5 -9.0°
Maximum altitude 16:50:03 76° 258° (WSW) 508 2.8 -9.6°
Drops below altitude 10° 16:53:39 10° 345° (NNW) 1,676 5.2 -10.2°
Sets 16:55:43 0° 347° (NNW) 2,555 6.2 -10.5°
